Weather History for Presque Isle, ME

Change the Weather History Date:

Sunday, February 10, 2013

  Actual Average Record
Temperature  
Mean Temperature 12 °F -  
Max Temperature 26 °F 24 °F 43 °F (1990)
Min Temperature -2 °F 0 °F -25 °F (1948)
Degree Days  
Heating Degree Days 53    
Moisture  
Dew Point 0 °F    
Average Humidity 57    
Maximum Humidity 92    
Minimum Humidity 31    
Precipitation  
Precipitation 0.00 in - - ()
Sea Level Pressure  
Sea Level Pressure 30.13 in    
Wind  
Wind Speed 12 mph (NNW)    
Max Wind Speed 18 mph    
Max Gust Speed 26 mph    
Visibility 10 miles    
Events      
Averages and records for this station are not official NWS values.
T = Trace of Precipitation, MM = Missing Value Source: NWS Daily Summary

Daily Weather History Graph

Daily Weather History Graph

Search for Another Location

Airport:

Trip Planner

Search our weather history database for the weather conditions in past years. The results will help you decide how hot, cold, wet, or windy it might be!

Date:

Astronomy

Feb. 10, 2013 Rise Set
Actual Time 6:43 AM EST 4:49 PM EST
Civil Twilight 6:12 AM EST 5:21 PM EST
Nautical Twilight 5:36 AM EST 5:57 PM EST
Astronomical Twilight 5:01 AM EST 6:32 PM EST
Moon 6:26 AM EST (2/10) 5:42 PM EST (2/10)
Length of Visible Light 11h 09m
Length of Day
10h 06m
New Moon, 0% of the Moon is Illuminated
Feb 10
New Moon
Feb 17
First Quarter
Feb 25
Full
Mar 4
Last Quarter
Mar 11
New

Hourly Weather History & Observations

Time (EST) Temp. Windchill Dew Point Humidity Pressure Visibility Wind Dir Wind Speed Gust Speed Precip Events Conditions
12:15 AM 12.2 °F -5.3 °F 3.2 °F 67% 30.01 in 10.0 mi NNW 18.4 mph 23.0 mph N/A   Overcast
12:35 AM 12.2 °F -4.3 °F 1.4 °F 62% 30.01 in 10.0 mi NNW 16.1 mph 20.7 mph N/A   Overcast
12:55 AM 12.2 °F -4.8 °F 1.4 °F 62% 30.01 in 10.0 mi NNW 17.3 mph 24.2 mph N/A   Overcast
1:15 AM 12.2 °F -5.3 °F 3.2 °F 67% 30.02 in 10.0 mi NNW 18.4 mph 25.3 mph N/A   Overcast
1:35 AM 12.2 °F -3.7 °F 1.4 °F 62% 30.03 in 10.0 mi NNW 15.0 mph 20.7 mph N/A   Overcast
1:55 AM 12.2 °F -3.7 °F 1.4 °F 62% 30.03 in 10.0 mi NNW 15.0 mph 25.3 mph N/A   Overcast
2:15 AM 12.2 °F -3.7 °F 1.4 °F 62% 30.03 in 10.0 mi NNW 15.0 mph - N/A   Mostly Cloudy
2:35 AM 12.2 °F -4.8 °F 1.4 °F 62% 30.04 in 10.0 mi NNW 17.3 mph 20.7 mph N/A   Mostly Cloudy
2:55 AM 12.2 °F -3.1 °F 1.4 °F 62% 30.04 in 10.0 mi NNW 13.8 mph 18.4 mph N/A   Overcast
3:15 AM 12.2 °F -3.1 °F 1.4 °F 62% 30.04 in 10.0 mi NNW 13.8 mph - N/A   Overcast
3:35 AM 12.2 °F -4.3 °F 1.4 °F 62% 30.04 in 10.0 mi NNW 16.1 mph - N/A   Overcast
3:55 AM 10.4 °F -6.0 °F 1.4 °F 67% 30.04 in 10.0 mi NW 15.0 mph 21.9 mph N/A   Overcast
4:35 AM 10.4 °F -7.7 °F 1.4 °F 67% 30.05 in 8.0 mi NW 18.4 mph 26.5 mph N/A   Partly Cloudy
4:55 AM 10.4 °F -3.3 °F 1.4 °F 67% 30.06 in 10.0 mi NW 10.4 mph - N/A   Clear
5:15 AM 10.4 °F -4.8 °F -0.4 °F 62% 30.06 in 10.0 mi NW 12.7 mph 19.6 mph N/A   Clear
5:35 AM 10.4 °F -4.8 °F -0.4 °F 62% 30.07 in 10.0 mi NW 12.7 mph 18.4 mph N/A   Clear
5:55 AM 10.4 °F -4.8 °F -0.4 °F 62% 30.07 in 10.0 mi NW 12.7 mph - N/A   Partly Cloudy
6:15 AM 10.4 °F -6.0 °F -0.4 °F 62% 30.08 in 10.0 mi NNW 15.0 mph 20.7 mph N/A   Clear
6:35 AM 10.4 °F -4.1 °F -0.4 °F 62% 30.09 in 10.0 mi NNW 11.5 mph 17.3 mph N/A   Clear
7:15 AM 8.6 °F -3.7 °F -0.4 °F 67% 30.11 in 10.0 mi NW 8.1 mph - N/A   Clear
7:35 AM 8.6 °F - -0.4 °F 67% 30.13 in 10.0 mi Calm Calm - N/A   Clear
7:55 AM 10.4 °F -1.5 °F -0.4 °F 62% 30.13 in 10.0 mi WNW 8.1 mph - N/A   Clear
8:15 AM 10.4 °F -1.5 °F -0.4 °F 62% 30.14 in 10.0 mi NW 8.1 mph - N/A   Clear
8:35 AM 10.4 °F -3.3 °F -0.4 °F 62% 30.15 in 10.0 mi NW 10.4 mph 16.1 mph N/A   Clear
8:55 AM 12.2 °F -1.0 °F -0.4 °F 57% 30.16 in 10.0 mi NW 10.4 mph - N/A   Clear
9:15 AM 12.2 °F -2.5 °F -0.4 °F 57% 30.17 in 10.0 mi NW 12.7 mph - N/A   Clear
9:55 AM 14.0 °F 1.2 °F 1.4 °F 57% 30.18 in 10.0 mi NNW 10.4 mph - N/A   Clear
10:15 AM 15.8 °F 2.1 °F 1.4 °F 53% 30.18 in 10.0 mi NW 12.7 mph 21.9 mph N/A   Clear
10:35 AM 15.8 °F 1.4 °F -0.4 °F 49% 30.18 in 10.0 mi NNW 13.8 mph 19.6 mph N/A   Clear
10:55 AM 17.6 °F 2.7 °F 1.4 °F 49% 30.18 in 10.0 mi NNW 16.1 mph 23.0 mph N/A   Clear
11:15 AM 17.6 °F 2.7 °F 1.4 °F 49% 30.18 in 10.0 mi NNW 16.1 mph - N/A   Clear
11:35 AM 19.4 °F 6.0 °F 3.2 °F 49% 30.17 in 6.0 mi NNW 13.8 mph - N/A   Clear
11:55 AM 21.2 °F 7.3 °F 1.4 °F 42% 30.17 in 10.0 mi NNW 16.1 mph - N/A   Clear
12:15 PM 21.2 °F 7.8 °F 3.2 °F 46% 30.17 in 0.8 mi NNW 15.0 mph - N/A   Unknown
12:35 PM 21.2 °F 10.1 °F 3.2 °F 46% 30.16 in 10.0 mi NNW 10.4 mph - N/A   Clear
12:55 PM 24.8 °F 13.4 °F 3.2 °F 40% 30.15 in 10.0 mi NNW 12.7 mph - N/A   Clear
1:15 PM 24.8 °F 12.9 °F 3.2 °F 40% 30.16 in 10.0 mi WNW 13.8 mph - N/A   Clear
1:35 PM 24.8 °F 12.9 °F 1.4 °F 36% 30.15 in 10.0 mi NNW 13.8 mph - N/A   Clear
1:55 PM 24.8 °F 12.9 °F 3.2 °F 40% 30.15 in 10.0 mi North 13.8 mph - N/A   Clear
2:35 PM 24.8 °F 14.6 °F 1.4 °F 36% 30.15 in 10.0 mi NNW 10.4 mph - N/A   Clear
2:55 PM 26.6 °F 15.2 °F -0.4 °F 31% 30.16 in 10.0 mi NW 13.8 mph 17.3 mph N/A   Clear
3:15 PM 26.6 °F 16.2 °F -0.4 °F 31% 30.15 in 10.0 mi North 11.5 mph - N/A   Clear
3:35 PM 24.8 °F 12.9 °F 1.4 °F 36% 30.15 in 10.0 mi NNW 13.8 mph - N/A   Clear
3:55 PM 26.6 °F 16.2 °F 1.4 °F 34% 30.15 in 10.0 mi NNW 11.5 mph - N/A   Clear
4:15 PM 24.8 °F 13.4 °F -0.4 °F 34% 30.15 in 10.0 mi NNW 12.7 mph - N/A   Clear
4:35 PM 21.2 °F 10.9 °F -0.4 °F 39% 30.16 in 10.0 mi NNW 9.2 mph - N/A   Clear
5:15 PM 21.2 °F 12.6 °F -0.4 °F 39% 30.17 in 10.0 mi NW 6.9 mph - N/A   Clear
5:35 PM 21.2 °F 12.6 °F -0.4 °F 39% 30.17 in 10.0 mi NW 6.9 mph - N/A   Clear
5:55 PM 21.2 °F 12.6 °F -0.4 °F 39% 30.18 in 10.0 mi NNW 6.9 mph - N/A   Clear
6:15 PM 19.4 °F 10.4 °F -0.4 °F 42% 30.18 in 10.0 mi NNW 6.9 mph - N/A   Clear
6:36 PM 19.4 °F 11.5 °F -2.2 °F 39% 30.19 in 10.0 mi NNW 5.8 mph - N/A   Clear
6:55 PM 14.0 °F 6.5 °F -5.8 °F 41% 30.20 in 10.0 mi SSE 4.6 mph - N/A   Clear
7:15 PM 10.4 °F - -2.2 °F 57% 30.20 in 10.0 mi Calm Calm - N/A   Clear
7:35 PM 10.4 °F - -0.4 °F 62% 30.20 in 10.0 mi Calm Calm - N/A   Clear
7:55 PM 6.8 °F - -2.2 °F 67% 30.21 in 10.0 mi Calm Calm - N/A   Clear
8:15 PM 6.8 °F - -0.4 °F 72% 30.21 in 10.0 mi Calm Calm - N/A   Clear
8:35 PM 3.2 °F - -4.0 °F 72% 30.22 in 10.0 mi Calm Calm - N/A   Clear
8:55 PM 3.2 °F - -2.2 °F 78% 30.19 in 10.0 mi Calm Calm - N/A   Clear
9:15 PM 5.0 °F - 1.4 °F 85% 30.19 in 10.0 mi Calm Calm - N/A   Clear
9:35 PM -0.4 °F - -9.4 °F 66% 30.19 in 10.0 mi Calm Calm - N/A   Clear
9:55 PM -0.4 °F - -7.6 °F 72% 30.20 in 10.0 mi Calm Calm - N/A   Clear
10:15 PM -0.4 °F - -5.8 °F 78% 30.17 in 10.0 mi Calm Calm - N/A   Clear
10:35 PM -0.4 °F - -2.2 °F 92% 30.18 in 10.0 mi Calm Calm - N/A   Clear
10:55 PM -0.4 °F - -4.0 °F 85% 30.17 in 10.0 mi Calm Calm - N/A   Clear
11:15 PM -2.2 °F - -9.4 °F 71% 30.17 in 10.0 mi Calm Calm - N/A   Clear
11:35 PM -2.2 °F - -5.8 °F 85% 30.18 in 10.0 mi Calm Calm - N/A   Clear
11:55 PM -2.2 °F - -11.2 °F 66% 30.18 in 10.0 mi Calm Calm - N/A   Clear